CW1521 Weather Reports


time (UTC)temp
C
wind
direction
speed
KPH
gust
KPH
rain 1hr
cm
rain 24hr
cm
rain mn
cm
humidity
%
barometer
mb
20260507154023 16 234 4.8 11.3 0.00 0.00 0.00 80 1009.9
20260507153522 16 269 3.2 12.9 0.00 0.00 0.00 80 1010.0
20260507153022 16 269 1.6 12.9 0.00 0.00 0.00 79 1010.1
20260507152522 16 1 0.0 8.0 0.00 0.00 0.00 80 1010.0
20260507152021 16 72 1.6 8.0 0.00 0.00 0.00 79 1010.0
20260507151520 16 283 3.2 8.0 0.00 0.00 0.00 79 1010.0
20260507151018 16 269 1.6 6.4 0.00 0.00 0.00 79 1010.0
20260507150518 16 178 1.6 4.8 0.00 0.00 0.00 79 1009.9
20260507150020 16 89 0.0 4.8 0.00 0.00 0.00 80 1009.9
20260507145514 16 240 0.0 4.8 0.00 0.00 0.00 80 1009.9
20260507145012 16 234 0.0 4.8 0.00 0.00 0.00 81 1009.9
20260507144516 15 269 0.0 4.8 0.00 0.00 0.00 81 1009.8
20260507144012 15 206 0.0 4.8 0.00 0.00 0.00 82 1009.8
20260507143509 15 135 0.0 4.8 0.00 0.00 0.00 83 1009.7
20260507143008 15 89 0.0 4.8 0.00 0.00 0.00 84 1009.7
20260507142505 14 178 0.0 3.2 0.00 0.00 0.00 84 1009.6
20260507142003 14 234 0.0 3.2 0.00 0.00 0.00 86 1009.6
20260507141508 13 178 0.0 3.2 0.00 0.00 0.00 86 1009.5
20260507141001 13 89 0.0 3.2 0.00 0.00 0.00 87 1009.5
20260507140559 13 46 0.0 3.2 0.00 0.00 0.00 87 1009.5
20260507140107 13 145 0.0 3.2 0.00 0.00 0.00 87 1009.4
20260507135556 13 89 0.0 3.2 0.00 0.00 0.00 86 1009.4
20260507135054 13 152 0.0 3.2 0.00 0.00 0.00 86 1009.4
20260507134553 13 135 0.0 3.2 0.00 0.00 0.00 85 1009.3
20260507134052 12 46 0.0 1.6 0.00 0.00 0.00 85 1009.1
20260507133550 12 46 0.0 1.6 0.00 0.00 0.00 85 1009.1
20260507133050 12 314 0.0 1.6 0.00 0.00 0.00 84 1009.1
20260507132547 12 63 0.0 3.2 0.00 0.00 0.00 84 1009.1
20260507132047 12 135 0.0 3.2 0.00 0.00 0.00 84 1009.0
20260507131548 12 89 0.0 3.2 0.00 0.00 0.00 84 1009.0
20260507131046 12 28 0.0 1.6 0.00 0.00 0.00 84 1009.0
20260507130545 12 46 0.0 1.6 0.00 0.00 0.00 84 1008.9
20260507130058 12 89 0.0 1.6 0.00 0.00 0.00 84 1008.9
20260507125543 12 89 0.0 3.2 0.00 0.00 0.00 84 1008.9
20260507125043 12 46 0.0 3.2 0.00 0.00 0.00 84 1008.9
20260507124558 12 46 0.0 3.2 0.00 0.00 0.00 84 1008.9
20260507124042 13 46 0.0 1.6 0.00 0.00 0.00 84 1008.9
20260507123542 13 63 0.0 1.6 0.00 0.00 0.00 84 1008.9
20260507123042 13 314 0.0 3.2 0.00 0.00 0.00 83 1008.9
20260507122541 13 46 0.0 3.2 0.00 0.00 0.00 83 1008.8
20260507122041 13 46 0.0 1.6 0.00 0.00 0.00 83 1008.9
20260507121542 13 135 0.0 1.6 0.00 0.00 0.00 83 1008.9
20260507121041 13 76 0.0 1.6 0.00 0.00 0.00 83 1008.8
20260507120539 13 117 0.0 1.6 0.00 0.00 0.00 83 1008.9
20260507120040 13 89 0.0 1.6 0.00 0.00 0.00 83 1008.9
20260507115539 13 89 0.0 3.2 0.00 0.00 0.00 83 1008.9
20260507115038 13 135 0.0 3.2 0.00 0.00 0.00 83 1008.9
20260507114549 13 89 0.0 3.2 0.00 0.00 0.00 83 1008.8
20260507114037 13 46 0.0 3.2 0.00 0.00 0.00 83 1008.9
20260507113536 13 89 0.0 3.2 0.00 0.00 0.00 83 1008.8
20260507113037 13 28 0.0 1.6 0.00 0.00 0.00 83 1008.9
20260507112535 13 1 0.0 1.6 0.00 0.00 0.00 83 1008.9
20260507112038 13 1 0.0 3.2 0.00 0.00 0.00 82 1009.0
20260507111534 13 56 0.0 3.2 0.00 0.00 0.00 83 1009.0
20260507111035 13 331 0.0 3.2 0.00 0.00 0.00 82 1009.1
20260507110533 13 35 0.0 3.2 0.00 0.00 0.00 83 1009.1
20260507110042 13 63 0.0 3.2 0.00 0.00 0.00 83 1009.2
20260507105532 13 1 0.0 3.2 0.00 0.00 0.00 83 1009.3
20260507105032 13 269 0.0 1.6 0.00 0.00 0.00 83 1009.2
20260507104532 13 135 0.0 1.6 0.00 0.00 0.00 82 1009.2
20260507104032 13 46 0.0 3.2 0.00 0.00 0.00 82 1009.1
20260507103532 13 56 0.0 3.2 0.00 0.00 0.00 82 1009.2
20260507103031 13 63 0.0 3.2 0.00 0.00 0.00 81 1009.2
20260507102531 13 46 0.0 6.4 0.00 0.00 0.00 81 1009.2
20260507102031 13 46 1.6 6.4 0.00 0.00 0.00 81 1009.2
20260507101530 13 68 1.6 6.4 0.00 0.00 0.00 81 1009.3
20260507101030 13 72 0.0 4.8 0.00 0.00 0.00 81 1009.2
20260507100528 13 56 1.6 4.8 0.00 0.00 0.00 81 1009.3
20260507100028 13 63 0.0 3.2 0.00 0.00 0.00 81 1009.2
20260507095527 13 46 0.0 3.2 0.00 0.00 0.00 81 1009.4
20260507095026 13 56 1.6 3.2 0.00 0.00 0.00 80 1009.3
20260507094525 13 89 0.0 3.2 0.00 0.00 0.00 80 1009.3
20260507094024 13 108 1.6 4.8 0.00 0.00 0.00 80 1009.4
20260507093524 13 89 0.0 4.8 0.00 0.00 0.00 80 1009.4
20260507093033 13 35 0.0 3.2 0.00 0.00 0.00 80 1009.4
20260507092523 13 89 0.0 4.8 0.00 0.00 0.00 80 1009.4
20260507092022 13 1 1.6 4.8 0.00 0.00 0.00 80 1009.5
20260507091534 13 89 0.0 3.2 0.00 0.00 0.00 80 1009.6
20260507091021 14 46 1.6 3.2 0.00 0.00 0.00 80 1009.7
20260507090520 14 89 0.0 3.2 0.00 0.00 0.00 80 1009.7
20260507090019 14 63 0.0 4.8 0.00 0.00 0.00 80 1009.8
20260507085518 14 28 1.6 4.8 0.00 0.00 0.00 80 1009.9
20260507085018 14 108 0.0 3.2 0.00 0.00 0.00 79 1009.9
20260507084521 14 53 0.0 3.2 0.00 0.00 0.00 79 1010.0
20260507084016 14 28 0.0 6.4 0.00 0.00 0.00 79 1010.0
20260507083516 14 28 1.6 0.0 2.72 2.49 0.00 79 1010.1
20260507083016 14 89 0.0 3.2 0.00 0.00 0.00 79 1010.1
20260507082515 14 63 1.6 3.2 0.00 0.00 0.00 79 1010.1
20260507082017 14 89 0.0 3.2 0.00 0.00 0.00 79 1010.2
20260507081514 14 46 1.6 3.2 0.00 0.00 0.00 78 1010.3
20260507081013 14 1 0.0 3.2 0.00 0.00 0.00 78 1010.3
20260507080512 15 46 0.0 3.2 0.00 0.00 0.00 78 1010.3
20260507080012 15 46 0.0 1.6 0.00 0.00 0.00 78 1010.3
20260507075510 15 46 0.0 1.6 0.00 0.00 0.00 78 1010.3
20260507075011 15 46 0.0 1.6 0.00 0.00 0.00 78 1010.3
20260507074510 15 46 0.0 1.6 0.00 0.00 0.00 78 1010.2
20260507074009 15 135 0.0 1.6 0.00 0.00 0.00 78 1010.1
20260507073509 15 269 0.0 1.6 0.00 0.00 0.00 78 1010.1
20260507073009 15 46 0.0 1.6 0.00 0.00 0.00 77 1010.2
20260507072508 15 314 0.0 1.6 0.00 0.00 0.00 77 1010.1
20260507072009 15 46 0.0 1.6 0.00 0.00 0.00 77 1010.2
20260507071510 15 135 0.0 1.6 0.00 0.00 0.00 77 1010.2
20260507071007 15 89 0.0 3.2 0.00 0.00 0.00 77 1010.3
20260507070506 15 46 0.0 3.2 0.00 0.00 0.00 78 1010.3
20260507070008 15 89 0.0 3.2 0.00 0.00 0.00 78 1010.3
20260507065503 15 46 0.0 3.2 0.00 0.00 0.00 78 1010.3
20260507065003 15 89 0.0 3.2 0.00 0.00 0.00 78 1010.3
20260507064503 15 63 0.0 3.2 0.00 0.00 0.00 77 1010.3
20260507064004 15 152 0.0 3.2 0.00 0.00 0.00 77 1010.3
20260507063502 15 135 0.0 3.2 0.00 0.00 0.00 76 1010.5
20260507063008 15 303 0.0 3.2 0.00 0.00 0.00 75 1010.4
20260507062505 15 46 0.0 1.6 0.00 0.00 0.00 74 1010.4
20260507062002 15 46 0.0 1.6 0.00 0.00 0.00 74 1010.4
20260507061503 15 46 0.0 3.2 0.00 0.00 0.00 74 1010.5
20260507061003 15 46 0.0 3.2 0.00 0.00 0.00 74 1010.5
20260507060502 15 269 0.0 1.6 0.00 0.00 0.00 73 1010.5
20260507060002 15 269 0.0 1.6 0.00 0.00 0.00 73 1010.6
20260507055502 15 89 0.0 1.6 0.00 0.00 0.00 73 1010.5
20260507055001 16 152 0.0 3.2 0.00 0.00 0.00 73 1010.4
20260507054502 16 28 0.0 1.6 0.00 0.00 0.00 73 1010.4
20260507054001 16 135 0.0 3.2 0.00 0.00 0.00 73 1010.4
20260507053501 16 89 0.0 3.2 0.00 0.00 0.00 73 1010.4
20260507053000 16 250 0.0 1.6 0.00 0.00 0.00 73 1010.3
20260507052500 16 28 0.0 3.2 0.00 0.00 0.00 72 1010.2
20260507052001 16 223 0.0 3.2 0.00 0.00 0.00 73 1010.3
20260507051604 16 46 0.0 3.2 0.00 0.00 0.00 72 1010.3
20260507051102 16 72 0.0 1.6 0.00 0.00 0.00 72 1010.3
20260507050600 16 63 0.0 1.6 0.00 0.00 0.00 72 1010.3
20260507045602 16 89 0.0 3.2 0.00 0.00 0.00 72 1010.2
20260507045100 16 89 0.0 1.6 0.00 0.00 0.00 72 1010.2
20260507044600 16 46 0.0 1.6 0.00 0.00 0.00 72 1010.2
20260507044059 16 89 0.0 1.6 0.00 0.00 0.00 72 1010.3
20260507043559 16 46 0.0 3.2 0.00 0.00 0.00 72 1010.2
20260507043059 16 46 0.0 3.2 0.00 0.00 0.00 71 1010.2
20260507042559 16 135 0.0 3.2 0.00 0.00 0.00 71 1010.2
20260507042101 16 269 0.0 3.2 0.00 0.00 0.00 71 1010.2
20260507041559 16 46 0.0 3.2 0.00 0.00 0.00 71 1010.2
20260507041058 16 1 0.0 4.8 0.00 0.00 0.00 71 1010.2
20260507040558 16 178 0.0 6.4 0.00 0.00 0.00 71 1010.2
20260507040110 16 269 1.6 8.0 0.00 0.00 0.00 71 1010.1
20260507035557 16 269 1.6 9.7 0.00 0.00 0.00 71 1010.0
20260507035100 16 46 1.6 9.7 0.00 0.00 0.00 71 1010.0
20260507034606 16 269 3.2 8.0 0.00 0.00 0.00 71 1009.9
20260507034056 16 269 3.2 9.7 0.00 0.00 0.00 72 1009.9
20260507033557 16 279 3.2 11.3 0.00 0.00 0.00 72 1009.9
20260507033103 16 161 1.6 12.9 0.00 0.00 0.00 71 1009.9
20260507032557 16 269 0.0 12.9 0.00 0.00 0.00 71 1009.9
20260507032059 17 178 3.2 12.9 0.00 0.00 0.00 70 1009.8
20260507031613 17 290 1.6 12.9 0.00 0.00 0.00 71 1009.8
20260507031058 17 20 3.2 11.3 0.00 0.00 0.00 72 1009.7
20260507030556 17 269 3.2 11.3 0.00 0.00 0.00 73 1009.6
20260507030056 17 240 1.6 11.3 0.00 0.00 0.00 73 1009.5
20260507025555 17 269 3.2 11.3 0.00 0.00 0.00 73 1009.5
20260507025055 17 258 3.2 11.3 0.00 0.00 0.00 73 1009.4
20260507024556 17 295 1.6 11.3 0.00 0.00 0.00 73 1009.4
20260507024054 17 269 4.8 12.9 0.00 0.00 0.00 73 1009.4
20260507023554 17 258 1.6 12.9 0.00 0.00 0.00 73 1009.4
20260507023055 17 135 0.0 12.9 0.00 0.00 0.00 73 1009.3
20260507022554 17 271 3.2 12.9 0.00 0.00 0.00 72 1009.3
20260507022053 17 269 3.2 11.3 0.00 0.00 0.00 72 1009.2
20260507021554 18 283 3.2 9.7 0.00 0.00 0.00 72 1009.2
20260507021054 18 274 3.2 12.9 0.00 0.00 0.00 71 1009.3
20260507020554 18 223 1.6 12.9 0.00 0.00 0.00 72 1009.1
20260507020054 18 178 1.6 14.5 0.00 0.00 0.00 71 1009.1
20260507015552 18 314 6.4 17.7 0.00 0.00 0.00 71 1009.1
20260507015052 18 265 6.4 17.7 0.00 0.00 0.00 70 1009.2
20260507014556 18 331 4.8 17.7 0.00 0.00 0.00 70 1009.1
20260507014052 18 178 4.8 17.7 0.00 0.00 0.00 69 1009.1
20260507013551 19 269 3.2 17.7 0.00 0.00 0.00 69 1009.1
20260507013109 20 269 4.8 16.1 0.00 0.00 0.00 68 1009.1
20260507012553 20 269 4.8 16.1 0.00 0.00 0.00 67 1009.1
20260507012051 20 269 4.8 17.7 0.00 0.00 0.00 67 1009.1
20260507011552 20 276 6.4 17.7 0.00 0.00 0.00 65 1009.1
20260507011051 20 286 4.8 16.1 0.00 0.00 0.00 66 1009.0
20260507010551 20 283 3.2 14.5 0.00 0.00 0.00 66 1009.0
20260507005551 21 264 8.0 19.3 0.00 0.00 0.00 64 1009.1
20260507005050 21 117 3.2 16.1 0.00 0.00 0.00 65 1009.0
20260507004551 21 117 4.8 14.5 0.00 0.00 0.00 65 1009.0
20260507004053 21 286 3.2 17.7 0.00 0.00 0.00 66 1009.0
20260507003616 21 269 4.8 17.7 0.00 0.00 0.00 65 1009.0
20260507003148 21 271 4.8 17.7 0.00 0.00 0.00 65 1009.0
20260507002512 21 269 6.4 17.7 0.00 0.00 0.00 63 1009.0
20260507002032 22 269 4.8 19.3 0.00 0.00 0.00 65 1009.0
20260507001549 22 72 3.2 19.3 0.00 0.00 0.00 64 1008.9
20260507001100 22 271 4.8 17.7 0.00 0.00 0.00 64 1008.8
20260507001009 22 277 4.8 17.7 0.00 0.00 0.00 64 1008.9
20260507000625 22 269 4.8 22.5 0.00 0.00 0.00 65 1008.8
20260507000018 22 72 6.4 27.4 0.00 0.00 0.00 64 1008.9
20260506235529 22 278 6.4 27.4 0.00 0.00 0.00 62 1008.8
20260506235044 22 79 4.8 17.7 0.00 0.00 0.00 62 1008.8
20260506234536 21 271 6.4 25.7 0.00 0.00 0.00 62 1008.8
20260506234031 21 269 8.0 25.7 0.00 0.00 0.00 63 1008.8
20260506233532 21 274 8.0 17.7 0.00 0.00 0.00 63 1008.8
20260506233051 21 269 6.4 19.3 0.00 0.00 0.00 62 1008.8
20260506232632 21 260 8.0 19.3 0.00 0.00 0.00 60 1008.8
20260506232031 21 284 4.8 20.9 0.00 0.00 0.00 61 1008.8
20260506231530 21 300 4.8 16.1 0.00 0.00 0.00 62 1008.8
20260506231028 21 269 6.4 19.3 0.00 0.00 0.00 58 1008.8
20260506230528 21 271 8.0 19.3 0.00 0.00 0.00 55 1008.9
20260506230028 21 269 6.4 20.9 0.00 0.00 0.00 54 1008.9
20260506225526 21 279 8.0 20.9 0.00 0.00 0.00 55 1009.0
20260506225025 21 281 4.8 14.5 0.00 0.00 0.00 59 1009.0
20260506224523 21 271 4.8 17.7 0.00 0.00 0.00 63 1009.1
20260506224022 20 269 4.8 17.7 0.00 0.00 0.00 66 1009.2
20260506223520 20 269 4.8 17.7 0.00 0.00 0.00 70 1009.3
20260506223021 20 278 9.7 20.9 0.00 0.00 0.00 69 1009.5
20260506222518 20 269 6.4 20.9 0.00 0.00 0.00 71 1009.5
20260506222020 20 271 6.4 19.3 0.00 0.00 0.00 71 1009.6
20260506221518 20 269 9.7 19.3 0.00 0.00 0.00 70 1009.6
20260506221017 20 269 6.4 19.3 0.00 0.00 0.00 71 1009.6
20260506220517 19 258 6.4 22.5 0.00 0.00 0.00 72 1009.7
20260506220023 19 276 9.7 22.5 0.00 0.00 0.00 71 1009.8
20260506215515 19 28 6.4 20.9 0.00 0.00 0.00 72 1009.8
20260506215014 20 269 8.0 20.9 0.00 0.00 0.00 69 1009.8
20260506214514 20 271 4.8 17.7 0.00 0.00 0.00 72 1009.8
20260506214016 19 255 4.8 22.5 0.00 0.00 0.00 71 1009.9
20260506213512 19 250 8.0 22.5 0.00 0.00 0.00 71 1010.0
20260506213011 18 262 6.4 22.5 0.00 0.00 0.00 71 1010.1
20260506212511 19 274 9.7 22.5 0.00 0.00 0.00 71 1010.2
20260506212012 19 253 8.0 20.9 0.00 0.00 0.00 70 1010.2
20260506211519 19 271 8.0 20.9 0.00 0.00 0.00 71 1010.2
20260506211011 19 262 4.8 19.3 0.00 0.00 0.00 73 1010.3
20260506210517 18 183 8.0 22.5 0.00 0.00 0.00 71 1010.4
20260506210021 18 245 9.7 29.0 0.00 0.00 0.00 70 1010.3
20260506205510 19 223 9.7 29.0 0.00 0.00 0.00 69 1010.4
20260506205019 19 259 8.0 19.3 0.00 0.00 0.00 70 1010.4
20260506204510 19 257 6.4 19.3 0.00 0.00 0.00 71 1010.3
20260506204009 19 265 9.7 24.1 0.00 0.00 0.00 71 1010.3
20260506203510 18 274 6.4 24.1 0.00 0.00 0.00 71 1010.4
20260506203009 18 269 6.4 24.1 0.00 0.00 0.00 70 1010.5
20260506202513 18 283 6.4 24.1 0.00 0.00 0.00 70 1010.5
20260506202009 19 269 9.7 24.1 0.00 0.00 0.00 68 1010.6
20260506201509 19 269 6.4 22.5 0.00 0.00 0.00 70 1010.6
20260506201013 19 264 8.0 22.5 0.00 0.00 0.00 70 1010.6
20260506200508 19 286 6.4 20.9 0.00 0.00 0.00 68 1010.7
20260506200015 19 269 8.0 22.5 0.00 0.00 0.00 69 1010.8
20260506195506 19 314 8.0 22.5 0.00 0.00 0.00 69 1010.8
20260506195008 19 279 4.8 19.3 0.00 0.00 0.00 70 1010.9
20260506194507 19 253 8.0 19.3 0.00 0.00 0.00 69 1010.9
20260506194006 20 271 9.7 19.3 0.00 0.00 0.00 68 1011.1
20260506193504 19 269 6.4 19.3 0.00 0.00 0.00 69 1011.0
20260506193007 19 274 6.4 17.7 0.00 0.00 0.00 69 1011.1
20260506192503 19 271 6.4 24.1 0.00 0.00 0.00 69 1011.1
20260506192003 18 284 6.4 24.1 0.00 0.00 0.00 71 1011.2
20260506191502 19 20 4.8 19.3 0.00 0.00 0.00 72 1011.3
20260506191002 18 269 3.2 19.3 0.00 0.00 0.00 74 1011.3
20260506190601 18 276 4.8 19.3 0.00 0.00 0.00 73 1011.3
20260506190100 18 269 6.4 17.7 0.00 0.00 0.00 73 1011.3
20260506185558 18 269 4.8 20.9 0.00 0.00 0.00 73 1011.4
20260506185057 18 269 9.7 20.9 0.00 0.00 0.00 72 1011.5
20260506184610 18 276 8.0 19.3 0.00 0.00 0.00 73 1011.5
20260506184056 18 178 4.8 17.7 0.00 0.00 0.00 73 1011.5
20260506183555 18 283 6.4 16.1 0.00 0.00 0.00 73 1011.5
20260506183054 18 269 8.0 19.3 0.00 0.00 0.00 72 1011.6
20260506182553 18 269 8.0 19.3 0.00 0.00 0.00 72 1011.7
20260506182052 18 274 6.4 17.7 0.00 0.00 0.00 72 1011.7
20260506181550 18 262 4.8 17.7 0.00 0.00 0.00 72 1011.6
20260506181050 18 265 4.8 16.1 0.00 0.00 0.00 72 1011.7
20260506180548 18 178 6.4 14.5 0.00 0.00 0.00 72 1011.7
20260506180047 18 1 4.8 14.5 0.00 0.00 0.00 71 1011.7
20260506175545 18 277 3.2 14.5 0.00 0.00 0.00 71 1011.6
20260506175044 18 260 3.2 14.5 0.00 0.00 0.00 72 1011.6
20260506174546 18 223 4.8 14.5 0.00 0.00 0.00 71 1011.6
20260506174042 18 262 3.2 11.3 0.00 0.00 0.00 72 1011.5
20260506173543 18 173 3.2 12.9 0.00 0.00 0.00 72 1011.5
20260506173045 18 241 3.2 12.9 0.00 0.00 0.00 72 1011.6
20260506172539 18 269 3.2 12.9 0.00 0.00 0.00 72 1011.5
20260506172039 18 274 3.2 12.9 0.00 0.00 0.00 72 1011.5
20260506171547 18 63 3.2 11.3 0.00 0.00 0.00 71 1011.6
20260506171038 18 274 1.6 11.3 0.00 0.00 0.00 71 1011.6
20260506170537 18 269 3.2 11.3 0.00 0.00 0.00 72 1011.5
20260506170037 18 169 3.2 9.7 0.00 0.00 0.00 71 1011.7
20260506165536 18 135 3.2 11.3 0.00 0.00 0.00 71 1011.6
20260506165035 18 169 3.2 11.3 0.00 0.00 0.00 71 1011.7
20260506164543 18 269 1.6 11.3 0.00 0.00 0.00 70 1011.7
20260506164032 18 178 1.6 11.3 0.00 0.00 0.00 71 1011.7
20260506163531 18 178 1.6 9.7 0.00 0.00 0.00 71 1011.7
20260506163030 18 223 1.6 9.7 0.00 0.00 0.00 72 1011.7
20260506162528 17 168 1.6 9.7 0.00 0.00 0.00 72 1011.7
20260506162026 17 269 3.2 8.0 0.00 0.00 0.00 72 1011.7
20260506161527 18 170 1.6 8.0 0.00 0.00 0.00 72 1011.7
20260506161026 18 245 1.6 8.0 0.00 0.00 0.00 71 1011.7
20260506160524 17 155 1.6 9.7 0.00 0.00 0.00 71 1011.6
20260506160020 17 269 1.6 9.7 0.00 0.00 0.00 72 1011.6
20260506155520 17 89 3.2 8.0 0.00 0.00 0.00 72 1011.5
20260506155016 17 234 1.6 8.0 0.00 0.00 0.00 72 1011.5
20260506154516 17 269 0.0 9.7 0.00 0.00 0.00 71 1011.5